TimeEST,TemperatureF,Dew PointF,Humidity,Sea Level PressureIn,VisibilityMPH,Wind Direction,Wind SpeedMPH,Gust SpeedMPH,PrecipitationIn,Events,Conditions,WindDirDegrees,DateUTC
12:15 AM,44.6,44.6,100,29.97,2.5,Calm,Calm,-,0.01,Rain,Light Rain,0,2013-01-02 05:15:00
12:35 AM,44.6,44.6,100,29.97,4.0,Calm,Calm,-,0.04,Rain,Light Rain,0,2013-01-02 05:35:00
12:55 AM,44.6,44.6,100,29.96,5.0,Calm,Calm,-,0.01,Rain,Light Rain,0,2013-01-02 05:55:00
1:15 AM,44.6,44.6,100,29.95,7.0,Calm,Calm,-,0.02,Rain,Light Rain,0,2013-01-02 06:15:00
1:35 AM,44.6,44.6,100,29.96,10.0,Calm,Calm,-,0.03,Rain,Rain,0,2013-01-02 06:35:00
1:55 AM,44.6,44.6,100,29.97,7.0,Calm,Calm,-,N/A,Rain,Light Rain,0,2013-01-02 06:55:00
2:15 AM,44.6,44.6,100,29.97,10.0,Calm,Calm,-,0.01,,Light Drizzle,0,2013-01-02 07:15:00
2:35 AM,44.6,44.6,100,29.97,7.0,Calm,Calm,-,0.01,,Drizzle,0,2013-01-02 07:35:00
2:55 AM,44.6,44.6,100,29.98,7.0,North,3.5,-,N/A,Rain,Rain,350,2013-01-02 07:55:00
3:15 AM,44.6,44.6,100,29.97,10.0,Calm,Calm,-,N/A,,Drizzle,0,2013-01-02 08:15:00
3:35 AM,44.6,44.6,100,29.97,10.0,North,4.6,-,0.01,,Overcast,350,2013-01-02 08:35:00
3:55 AM,44.6,44.6,100,29.98,10.0,North,4.6,-,N/A,,Overcast,360,2013-01-02 08:55:00
4:15 AM,44.6,44.6,100,29.98,10.0,Calm,Calm,-,N/A,,Overcast,0,2013-01-02 09:15:00
4:35 AM,44.6,39.2,81,29.99,10.0,North,3.5,-,N/A,,Overcast,360,2013-01-02 09:35:00
4:55 AM,44.6,37.4,76,29.99,10.0,North,3.5,-,N/A,,Overcast,360,2013-01-02 09:55:00
5:15 AM,42.8,37.4,81,29.98,10.0,North,4.6,-,N/A,,Overcast,360,2013-01-02 10:15:00
5:35 AM,42.8,35.6,76,29.99,10.0,Calm,Calm,-,N/A,,Overcast,0,2013-01-02 10:35:00
5:55 AM,42.8,35.6,76,30.00,10.0,Calm,Calm,-,N/A,,Overcast,0,2013-01-02 10:55:00
6:15 AM,42.8,35.6,76,30.00,10.0,Calm,Calm,-,N/A,,Overcast,0,2013-01-02 11:15:00
6:35 AM,42.8,42.8,100,30.02,10.0,Calm,Calm,-,N/A,,Overcast,0,2013-01-02 11:35:00
6:55 AM,42.8,35.6,76,30.03,10.0,North,3.5,-,N/A,,Overcast,10,2013-01-02 11:55:00
7:15 AM,42.8,35.6,76,30.03,10.0,NNW,6.9,-,N/A,,Overcast,340,2013-01-02 12:15:00
7:35 AM,42.8,35.6,76,30.05,10.0,NNW,9.2,-,N/A,,Overcast,340,2013-01-02 12:35:00
7:55 AM,42.8,33.8,70,30.07,10.0,NNW,8.1,-,N/A,,Overcast,330,2013-01-02 12:55:00
8:15 AM,42.8,33.8,70,30.08,10.0,NNW,8.1,-,N/A,,Overcast,330,2013-01-02 13:15:00
8:35 AM,42.8,33.8,70,30.08,10.0,North,9.2,-,N/A,,Overcast,350,2013-01-02 13:35:00
8:55 AM,42.8,33.8,70,30.09,10.0,North,8.1,-,N/A,,Overcast,350,2013-01-02 13:55:00
9:15 AM,42.8,33.8,70,30.10,10.0,NNW,5.8,-,N/A,,Mostly Cloudy,340,2013-01-02 14:15:00
9:35 AM,42.8,33.8,70,30.10,10.0,NW,5.8,-,N/A,,Clear,320,2013-01-02 14:35:00
9:55 AM,42.8,33.8,70,30.11,10.0,North,3.5,-,N/A,,Clear,350,2013-01-02 14:55:00
10:15 AM,44.6,33.8,66,30.10,10.0,NNW,4.6,-,N/A,,Clear,330,2013-01-02 15:15:00
10:35 AM,46.4,33.8,62,30.10,10.0,NNW,4.6,-,N/A,,Clear,330,2013-01-02 15:35:00
10:55 AM,46.4,32.0,57,30.11,10.0,North,5.8,-,N/A,,Scattered Clouds,360,2013-01-02 15:55:00
11:15 AM,46.4,32.0,57,30.12,10.0,NNW,9.2,-,N/A,,Scattered Clouds,340,2013-01-02 16:15:00
11:35 AM,46.4,33.8,62,30.11,10.0,NNW,8.1,-,N/A,,Scattered Clouds,330,2013-01-02 16:35:00
11:55 AM,46.4,33.8,62,30.10,10.0,NNW,9.2,-,N/A,,Mostly Cloudy,330,2013-01-02 16:55:00
12:15 PM,46.4,32.0,57,30.09,10.0,North,5.8,-,N/A,,Mostly Cloudy,360,2013-01-02 17:15:00
12:35 PM,46.4,32.0,57,30.08,10.0,NNW,6.9,-,N/A,,Scattered Clouds,340,2013-01-02 17:35:00
12:55 PM,48.2,32.0,54,30.07,10.0,NW,8.1,-,N/A,,Scattered Clouds,320,2013-01-02 17:55:00
1:15 PM,46.4,32.0,57,30.07,10.0,NNW,5.8,-,N/A,,Clear,330,2013-01-02 18:15:00
1:35 PM,46.4,30.2,53,30.07,10.0,NNW,5.8,-,N/A,,Clear,340,2013-01-02 18:35:00
1:55 PM,46.4,32.0,57,30.06,10.0,NNW,11.5,-,N/A,,Clear,330,2013-01-02 18:55:00
2:15 PM,46.4,30.2,53,30.07,10.0,NW,8.1,-,N/A,,Clear,320,2013-01-02 19:15:00
2:35 PM,46.4,30.2,53,30.08,10.0,NW,9.2,-,N/A,,Clear,320,2013-01-02 19:35:00
2:55 PM,46.4,30.2,53,30.09,10.0,NNW,6.9,-,N/A,,Clear,330,2013-01-02 19:55:00
3:15 PM,46.4,30.2,53,30.08,10.0,NNW,8.1,-,N/A,,Clear,340,2013-01-02 20:15:00
3:35 PM,44.6,30.2,57,30.09,10.0,North,5.8,-,N/A,,Clear,350,2013-01-02 20:35:00
3:55 PM,44.6,30.2,57,30.11,10.0,NNW,6.9,-,N/A,,Clear,330,2013-01-02 20:55:00
4:15 PM,44.6,30.2,57,30.11,10.0,NNW,9.2,-,N/A,,Clear,340,2013-01-02 21:15:00
4:35 PM,42.8,28.4,57,30.11,10.0,NW,9.2,-,N/A,,Clear,320,2013-01-02 21:35:00
4:55 PM,42.8,28.4,57,30.12,10.0,NW,6.9,-,N/A,,Clear,320,2013-01-02 21:55:00
5:15 PM,42.8,28.4,57,30.13,10.0,NW,6.9,-,N/A,,Clear,310,2013-01-02 22:15:00
5:35 PM,42.8,30.2,61,30.12,10.0,NNW,3.5,-,N/A,,Clear,330,2013-01-02 22:35:00
5:55 PM,42.8,28.4,57,30.13,10.0,NW,5.8,-,N/A,,Clear,320,2013-01-02 22:55:00
6:15 PM,42.8,28.4,57,30.12,10.0,Calm,Calm,-,N/A,,Clear,0,2013-01-02 23:15:00
6:35 PM,41.0,28.4,61,30.14,10.0,NW,6.9,-,N/A,,Clear,320,2013-01-02 23:35:00
6:55 PM,41.0,28.4,61,30.15,10.0,North,3.5,-,N/A,,Clear,350,2013-01-02 23:55:00
7:15 PM,41.0,28.4,61,30.16,10.0,Calm,Calm,-,N/A,,Clear,0,2013-01-03 00:15:00
7:35 PM,41.0,28.4,61,30.16,10.0,North,4.6,-,N/A,,Clear,350,2013-01-03 00:35:00
7:55 PM,41.0,28.4,61,30.15,10.0,Calm,Calm,-,N/A,,Clear,0,2013-01-03 00:55:00
8:15 PM,39.2,28.4,65,30.16,10.0,NNW,3.5,-,N/A,,Clear,340,2013-01-03 01:15:00
8:55 PM,39.2,28.4,65,30.16,10.0,North,3.5,-,N/A,,Clear,350,2013-01-03 01:55:00
9:15 PM,39.2,28.4,65,30.17,10.0,Calm,Calm,-,N/A,,Clear,0,2013-01-03 02:15:00
9:35 PM,39.2,28.4,65,30.17,10.0,North,3.5,-,N/A,,Clear,350,2013-01-03 02:35:00
9:55 PM,39.2,28.4,65,30.17,10.0,Calm,Calm,-,N/A,,Scattered Clouds,0,2013-01-03 02:55:00
10:15 PM,39.2,26.6,61,30.18,10.0,Calm,Calm,-,N/A,,Overcast,0,2013-01-03 03:15:00
10:35 PM,39.2,26.6,61,30.18,10.0,Calm,Calm,-,N/A,,Overcast,0,2013-01-03 03:35:00
10:55 PM,39.2,28.4,65,30.19,10.0,Calm,Calm,-,N/A,,Overcast,0,2013-01-03 03:55:00
11:15 PM,39.2,28.4,65,30.19,10.0,Calm,Calm,-,N/A,,Overcast,0,2013-01-03 04:15:00
11:35 PM,39.2,30.2,70,30.19,10.0,Calm,Calm,-,N/A,,Overcast,0,2013-01-03 04:35:00
11:55 PM,37.4,30.2,75,30.18,10.0,Calm,Calm,-,N/A,,Overcast,0,2013-01-03 04:55:00